Volver al catálogo

STARLINK-4478

ActivoComunicacionesVLEO
NORAD 53529·PAYLOAD·🇺🇸 United States

Lanzado Aug 19, 2022 desde Cape Canaveral Space Force Station

Loading…

Próximos Pases (próximas 24 horas)

TLE

ActualizadoSource: CelesTrak SupGP

Época: Sep 14, 2026, 21:53 UTC

1 53529C 22101C   26257.91229167  .00029048  00000+0  14272-2 0  2576
2 53529  53.2113 297.2356 0001701 351.5402  23.1706 15.17527970    18

Sigue STARLINK-4478 en tiempo real con AllMySat

Download on the App Store